Wetbulb
50.77 51.39 51.50 51.67 51.69 51.83 52.21 52.81 53.11 53.50 53.84 54.23 54.65 54.84 55.19 56.06 55.54 56.03 51.21 54.35 55.64 60.26 59.70 55.76 55.84 56.29 56.26 54.64 54.54 54.23 48.68 47.78 48.70 48.23 50.06 52.69 51.60 54.19 55.14 56.20 55.12 57.00 58.62 63.24 68.88
51.02 50.85 51.28 51.57 51.45 51.76 52.45 52.91 52.96 53.33 53.81 54.15 54.46 54.89 55.24 56.05 57.33 51.03 55.11 59.69 60.28 60.82 54.14 52.38 53.28 53.41 53.35 53.20 53.53 51.10 48.88 49.47 52.18 52.69 51.27 52.07 51.89 52.02 52.69 53.23 52.57 53.84 56.74 64.17 67.21
50.69 50.61 50.96 51.30 51.27 51.81 52.49 52.67 53.04 53.37 53.69 54.04 54.31 54.76 55.67 56.16 54.89 49.88 58.11 59.25 59.80 58.11 54.36 53.20 55.41 53.41 52.19 53.10 52.03 50.57 49.21 51.93 51.24 51.36 51.61 50.61 51.67 52.62 51.82 50.05 51.68 51.87 54.05 56.87 64.36
50.46 50.46 50.95 51.14 51.41 51.80 52.32 52.97 53.02 53.31 53.77 54.06 54.50 55.06 55.91 56.82 45.42 52.16 59.19 59.42 60.08 56.22 53.03 52.84 54.11 51.28 50.39 50.24 52.74 50.29 51.42 51.97 50.39 50.04 49.63 49.14 52.13 50.44 50.59 50.70 53.15 53.79 54.99 55.31 56.16
50.09 50.01 50.62 50.85 51.04 51.44 52.00 53.04 53.14 53.43 53.90 54.22 54.72 55.12 55.95 51.03 49.34 54.08 59.60 60.74 53.68 53.03 51.28 50.61 50.82 51.83 49.24 50.55 50.82 50.28 50.30 49.51 49.27 49.26 48.39 49.43 49.17 51.11 49.44 51.71 53.22 53.50 54.19 54.47 55.14
49.98 50.00 50.42 50.36 50.70 51.24 51.98 53.00 53.20 53.22 53.92 54.59 54.73 54.60 53.94 46.76 53.33 54.80 53.60 52.40 51.21 52.47 50.86 50.98 49.90 51.97 50.56 50.00 49.28 50.92 49.36 47.60 47.55 48.17 47.80 47.67 49.14 49.95 50.26 52.14 52.18 52.92 53.31 54.34 54.79
50.04 49.78 50.04 50.08 50.29 50.95 51.92 52.65 52.92 53.39 54.22 54.43 54.70 55.89 52.22 48.74 53.97 55.07 52.60 51.15 51.51 52.41 49.80 51.32 52.05 50.02 50.88 46.55 49.68 47.95 44.65 46.39 46.55 47.23 45.73 49.04 47.10 46.90 50.66 52.25 51.78 52.43 53.45 54.33 55.72
49.63 49.71 50.08 49.76 50.02 51.26 51.87 52.23 52.76 53.33 54.13 54.70 54.47 55.42 48.58 53.15 55.27 52.92 53.41 51.56 52.31 52.94 51.83 52.14 52.21 50.43 49.14 49.36 47.18 45.30 46.26 42.86 45.33 45.87 45.91 46.80 43.88 48.50 52.18 52.43 51.86 53.11 54.44 55.75 57.03
49.42 49.67 49.83 49.96 50.35 51.21 51.51 51.97 52.30 53.35 54.19 54.10 54.37 54.09 45.85 53.76 50.24 52.33 52.77 49.97 51.02 51.38 51.48 50.95 51.25 48.38 47.66 45.62 43.63 44.94 42.47 43.62 43.15 47.24 46.63 47.71 44.77 49.87 53.08 52.79 52.37 53.83 54.74 55.19 55.90
49.52 49.26 49.25 49.77 50.36 50.82 50.99 51.43 53.57 52.14 53.48 53.47 52.60 48.70 47.89 46.94 49.87 51.41 52.63 51.59 49.18 49.26 48.33 48.81 48.86 45.94 45.85 44.63 39.87 41.66 42.29 43.09 43.02 45.44 48.55 47.64 47.11 49.82 51.85 52.25 52.24 53.15 53.93 54.33 54.56
49.14 49.07 48.86 49.24 50.30 50.37 51.78 54.14 49.79 49.47 50.79 47.69 47.36 47.29 47.69 50.23 52.39 49.70 51.40 49.82 49.23 47.69 44.67 47.59 44.75 43.18 44.25 45.38 45.34 45.13 43.72 42.21 43.42 47.21 48.03 47.10 47.11 48.66 50.98 51.78 51.74 52.33 52.89 53.32 53.77
48.68 48.71 48.69 49.13 49.87 50.69 52.44 51.80 49.83 51.66 45.40 48.81 48.72 48.61 49.62 50.13 46.00 47.94 51.79 46.75 46.31 43.50 45.61 45.11 43.10 44.25 44.57 44.48 44.26 44.30 43.38 42.26 43.66 45.57 48.29 47.34 46.35 48.77 50.25 50.53 51.28 51.62 52.10 53.02 53.99
48.32 48.35 48.27 49.26 49.86 52.52 53.54 51.18 54.56 54.34 47.34 45.53 47.98 47.43 47.53 49.13 45.71 46.24 48.97 47.46 45.31 43.95 44.78 43.22 42.95 44.40 43.87 43.79 43.52 44.32 43.17 42.74 41.78 44.79 48.25 47.06 44.80 46.56 49.35 50.59 51.62 52.43 52.97 53.46 53.53
48.05 47.89 48.31 49.21 49.18 53.02 51.80 53.93 55.88 55.19 43.39 42.14 44.22 46.46 47.49 48.63 44.42 49.75 50.52 47.88 45.76 43.22 44.62 42.65 43.71 42.61 42.99 42.38 43.82 40.03 43.38 43.13 42.36 42.66 40.15 45.27 39.61 43.50 46.88 47.87 49.70 51.21 52.22 52.71 53.53
47.99 47.78 47.97 47.79 50.66 51.26 52.09 55.27 56.50 54.48 33.72 43.52 44.23 49.70 47.56 45.10 46.77 46.24 50.63 47.88 43.69 43.62 43.43 40.15 41.12 41.71 41.67 41.21 43.82 40.98 43.69 43.51 43.82 43.10 42.32 41.47 40.68 42.77 45.82 44.62 47.13 49.92 51.49 52.69 53.84
47.62 47.65 47.62 52.30 53.06 52.72 55.29 55.77 54.73 40.68 30.64 39.64 44.06 42.60 42.74 44.55 44.73 46.62 46.64 48.94 47.79 43.81 45.52 43.18 45.63 43.98 42.94 43.50 44.09 44.75 43.37 43.32 43.83 43.37 38.33 39.73 40.89 41.41 44.05 44.47 46.59 48.85 50.46 51.16 51.53
47.34 47.44 46.75 49.21 51.11 54.62 56.13 53.12 39.57 32.41 42.36 38.87 39.76 42.63 42.58 41.71 42.75 43.75 43.14 42.82 41.64 38.25 38.37 41.15 41.53 42.92 44.53 41.98 44.27 44.24 42.46 36.89 35.98 35.85 36.80 41.25 40.41 43.04 45.41 46.72 47.27 47.48 49.22 50.15 50.50
47.44 47.35 48.36 50.75 54.96 54.39 53.55 45.53 31.53 39.25 39.49 42.64 41.91 42.08 40.34 42.49 42.11 42.55 42.02 40.94 44.08 42.82 40.24 37.80 34.25 40.44 42.58 42.92 41.84 43.70 43.17 39.71 32.64 34.35 36.93 40.25 38.26 41.54 46.70 48.12 48.39 48.53 49.00 49.34 49.63
46.96 48.47 49.33 53.04 54.08 53.99 48.15 34.97 36.60 40.78 43.10 40.75 41.57 39.15 39.82 41.49 41.27 41.49 41.69 41.48 42.48 44.25 39.92 39.14 36.30 41.53 42.22 43.64 44.33 41.26 40.27 44.59 38.27 39.44 37.30 40.35 41.43 44.13 45.67 46.14 46.82 46.60 47.65 47.99 48.90
46.09 44.99 46.18 55.11 54.72 51.87 44.56 36.67 40.75 43.64 43.61 43.05 38.23 40.87 38.06 39.20 39.23 40.88 40.84 42.87 40.44 43.15 45.32 41.30 33.86 39.98 41.10 44.09 44.02 44.22 45.92 38.19 40.26 32.09 31.86 37.13 39.29 40.44 41.78 43.84 45.61 46.03 46.74 47.56 48.90
44.75 40.55 50.44 54.50 53.34 46.90 35.80 39.56 42.55 44.35 44.44 42.43 41.41 39.81 41.17 39.60 40.42 40.50 40.59 41.23 41.73 41.42 43.86 43.05 40.06 36.60 40.07 40.15 39.98 40.61 39.88 41.44 42.53 40.10 35.02 33.76 38.25 46.62 44.79 45.10 44.69 46.22 46.93 47.36 48.42
42.51 35.63 50.06 52.14 40.35 45.22 36.77 42.92 44.11 43.43 45.12 44.17 44.14 42.93 42.05 41.70 39.96 40.94 40.33 40.90 43.43 42.79 39.69 42.72 42.17 33.65 37.49 41.25 43.53 43.71 41.92 42.02 37.99 35.81 38.23 38.00 37.92 46.68 46.52 46.04 45.30 45.64 46.82 47.48 48.03
38.66 40.47 49.58 48.22 33.34 33.52 41.47 41.98 42.99 42.59 42.81 42.64 42.04 43.61 45.03 41.57 38.29 41.13 41.58 42.84 42.77 42.28 40.99 41.84 39.55 33.21 33.77 37.46 40.62 39.46 41.01 41.97 39.92 40.28 37.26 35.09 37.76 46.61 45.62 44.43 44.69 44.76 46.15 46.77 47.59
39.39 32.57 40.95 41.89 44.27 40.27 38.18 39.63 40.01 44.05 43.43 43.86 43.13 43.88 42.42 41.26 42.07 40.05 38.55 40.57 42.44 42.53 39.27 39.86 40.76 38.62 35.61 38.12 40.33 37.03 39.27 40.06 39.12 34.89 35.87 37.29 38.72 41.88 43.15 43.37 43.45 44.09 46.06 46.78 47.37
39.00 35.04 40.13 32.72 34.34 40.18 40.89 39.84 39.22 38.67 43.25 44.03 42.11 42.13 41.63 38.45 39.47 39.08 39.63 39.09 40.71 38.57 40.66 42.02 35.98 37.95 37.17 38.30 38.93 39.34 39.15 38.74 37.15 37.91 34.70 37.36 38.01 39.54 41.29 42.15 43.56 45.30 45.98 45.85 46.06
36.00 36.95 39.73 39.86 40.07 37.75 38.76 37.66 39.39 41.36 41.04 40.09 40.55 41.91 43.46 40.41 40.89 38.67 39.61 39.05 37.95 40.09 40.44 41.87 36.15 37.48 32.94 36.12 35.73 34.19 37.10 39.44 39.10 38.79 38.31 37.99 37.41 42.54 43.22 44.11 44.49 45.02 45.16 44.71 45.15
40.23 44.22 39.73 37.59 38.73 37.30 37.72 38.78 40.17 43.35 43.63 44.45 43.10 42.79 42.13 43.20 45.06 46.91 45.71 44.92 43.68 40.03 39.52 38.78 37.03 34.99 31.93 35.06 34.09 30.27 35.01 37.41 38.49 40.37 39.07 35.48 40.08 43.17 42.25 43.26 44.33 44.93 44.84 44.29 44.82
MSLP
1023.04 1022.68 1022.32 1022.14 1021.81 1021.39 1020.86 1020.41 1019.87 1019.33 1018.84 1018.36 1017.84 1017.43 1016.95 1016.41 1015.39 1014.46 1013.26 1014.39 1014.05 1013.61 1013.31 1011.46 1009.98 1008.99 1008.38 1007.12 1006.88 1006.00 1004.58 1002.78 1002.62 1003.55 1005.00 1005.58 1005.38 1005.91 1005.63 1005.35 1006.76 1007.02 1007.50 1008.35 1008.83
1023.18 1022.61 1022.33 1022.15 1021.79 1021.38 1020.77 1020.22 1019.74 1019.22 1018.75 1018.27 1017.92 1017.56 1017.11 1016.83 1015.12 1013.23 1014.44 1014.08 1013.68 1013.50 1012.08 1010.40 1009.02 1008.73 1007.54 1006.87 1006.55 1005.68 1004.35 1004.11 1005.05 1006.10 1006.38 1006.31 1006.21 1006.62 1005.78 1006.57 1007.95 1008.29 1008.36 1007.88 1008.75
1023.14 1022.55 1022.54 1022.32 1021.86 1021.28 1020.66 1020.18 1019.65 1019.15 1018.67 1018.24 1018.01 1017.59 1017.38 1016.89 1014.64 1012.71 1013.93 1013.59 1013.33 1013.14 1011.68 1010.76 1009.67 1008.65 1007.06 1006.82 1006.72 1006.10 1005.43 1006.24 1007.24 1008.38 1007.70 1007.11 1007.11 1008.04 1007.25 1008.17 1009.06 1009.06 1008.92 1008.72 1008.41
1023.19 1022.74 1022.64 1022.19 1021.72 1021.22 1020.60 1020.07 1019.49 1018.95 1018.48 1018.09 1017.89 1017.57 1017.28 1016.22 1013.46 1013.07 1013.74 1013.57 1013.10 1012.37 1010.91 1010.02 1009.22 1007.86 1006.93 1006.55 1006.88 1006.78 1007.68 1007.44 1008.71 1009.02 1008.52 1008.08 1007.72 1008.96 1009.44 1009.92 1009.92 1009.63 1009.46 1009.18 1008.94
1023.00 1022.93 1022.49 1022.09 1021.58 1021.03 1020.47 1019.93 1019.30 1018.68 1018.18 1017.80 1017.58 1017.36 1016.85 1014.73 1012.52 1012.86 1013.34 1012.76 1011.90 1011.31 1010.29 1009.58 1008.57 1007.51 1006.87 1006.96 1007.20 1006.89 1008.34 1009.13 1009.49 1009.61 1009.57 1008.91 1008.49 1009.01 1010.12 1010.35 1010.00 1009.74 1009.49 1009.40 1009.19
1023.10 1022.83 1022.37 1021.95 1021.39 1020.79 1020.22 1019.71 1019.01 1018.29 1017.80 1017.48 1017.21 1017.27 1016.06 1013.26 1012.83 1012.75 1012.77 1012.18 1011.74 1010.88 1010.18 1009.74 1008.74 1008.46 1007.79 1007.74 1007.74 1008.44 1008.88 1009.74 1010.00 1009.99 1010.20 1009.45 1009.44 1009.86 1010.54 1010.41 1009.86 1009.67 1009.62 1009.73 1009.61
1023.02 1022.61 1022.26 1021.84 1021.27 1020.63 1020.02 1019.32 1018.62 1017.92 1017.35 1017.20 1017.00 1016.20 1014.01 1012.67 1012.78 1012.47 1012.64 1012.21 1012.02 1011.24 1010.52 1010.46 1009.60 1008.88 1008.69 1009.07 1009.38 1009.44 1009.46 1009.77 1010.50 1010.26 1010.57 1010.22 1010.22 1010.93 1010.95 1010.55 1010.42 1010.08 1010.17 1010.22 1010.29
1023.15 1022.51 1022.15 1021.78 1021.20 1020.45 1019.72 1018.90 1018.21 1017.57 1017.00 1016.76 1016.60 1015.23 1013.11 1013.18 1012.71 1012.68 1012.26 1012.00 1012.08 1011.71 1011.26 1011.08 1010.14 1009.62 1008.96 1009.61 1009.51 1008.99 1008.89 1009.19 1010.67 1010.56 1010.79 1010.37 1010.74 1011.74 1011.57 1011.15 1011.02 1011.15 1011.26 1011.46 1012.00
1023.17 1022.64 1022.15 1021.66 1021.07 1020.26 1019.37 1018.38 1017.52 1017.00 1016.70 1016.36 1015.69 1014.25 1012.65 1013.30 1012.78 1012.72 1012.46 1011.99 1012.04 1011.80 1011.59 1011.43 1010.61 1009.92 1010.15 1008.81 1008.59 1008.46 1007.23 1008.35 1010.16 1010.26 1009.97 1009.49 1011.21 1012.51 1012.40 1012.21 1012.18 1012.40 1012.62 1013.00 1013.41
1023.21 1022.73 1022.15 1021.55 1020.89 1020.07 1018.90 1017.77 1016.76 1016.55 1015.79 1014.81 1014.06 1013.41 1013.02 1012.44 1012.85 1012.74 1012.59 1012.45 1011.99 1011.47 1011.08 1010.86 1009.97 1009.37 1008.81 1007.99 1006.50 1006.81 1007.55 1008.65 1009.39 1010.32 1009.97 1010.76 1012.21 1013.21 1013.29 1013.24 1013.36 1013.49 1013.87 1014.15 1014.46
1023.24 1022.85 1022.20 1021.49 1020.77 1019.98 1018.57 1016.57 1016.37 1015.70 1014.37 1013.27 1012.52 1012.31 1012.51 1012.59 1012.77 1012.46 1012.55 1012.32 1011.96 1011.44 1010.26 1010.17 1008.82 1008.20 1008.35 1008.02 1007.37 1007.04 1007.89 1009.38 1010.89 1010.84 1010.84 1011.56 1012.48 1013.53 1013.97 1013.83 1014.11 1014.32 1014.62 1014.95 1015.28
1023.27 1022.78 1022.19 1021.40 1020.51 1019.55 1019.01 1016.11 1016.64 1016.78 1014.75 1013.90 1013.39 1012.76 1012.86 1012.57 1012.21 1012.40 1012.31 1011.90 1011.54 1010.40 1010.50 1009.57 1009.62 1010.80 1010.52 1009.62 1008.74 1008.37 1009.01 1010.22 1011.42 1011.74 1011.07 1011.92 1012.85 1013.83 1014.26 1014.79 1015.09 1015.17 1015.41 1015.64 1015.71
1023.27 1022.68 1022.19 1021.33 1020.27 1019.10 1017.48 1017.38 1017.04 1016.60 1014.55 1013.66 1012.85 1012.42 1012.65 1012.53 1012.41 1012.45 1012.04 1011.37 1010.74 1010.45 1010.05 1009.83 1011.60 1011.92 1011.24 1010.33 1009.62 1009.51 1009.56 1010.46 1010.91 1011.46 1011.43 1011.85 1012.63 1013.51 1014.47 1014.99 1015.56 1015.81 1016.08 1016.19 1016.47
1023.33 1022.79 1022.12 1021.06 1020.32 1018.37 1017.45 1017.72 1017.38 1017.29 1014.49 1013.10 1012.89 1012.45 1012.77 1012.43 1012.78 1013.00 1012.82 1012.05 1010.79 1010.66 1011.07 1011.94 1012.45 1012.12 1011.54 1010.98 1011.00 1011.29 1011.95 1011.77 1011.65 1011.00 1010.48 1011.36 1011.56 1013.54 1014.14 1014.90 1015.63 1016.04 1016.41 1016.80 1016.96
1023.33 1022.92 1022.30 1021.84 1020.34 1017.80 1018.16 1018.06 1017.72 1017.04 1014.23 1011.93 1011.88 1012.55 1012.38 1012.28 1012.34 1012.85 1013.09 1012.32 1011.63 1011.64 1012.40 1012.73 1012.77 1012.29 1012.04 1012.58 1012.43 1012.43 1012.99 1012.29 1011.81 1011.02 1010.97 1011.37 1011.08 1013.12 1014.34 1014.88 1015.64 1016.21 1016.69 1017.17 1017.44
1023.09 1022.94 1022.47 1019.85 1019.69 1018.78 1018.43 1018.18 1017.69 1016.16 1013.40 1011.84 1011.65 1012.04 1012.22 1012.34 1012.54 1012.80 1012.89 1012.49 1012.29 1012.16 1012.01 1012.70 1013.30 1013.15 1013.50 1013.90 1013.35 1013.32 1013.13 1012.76 1011.94 1011.40 1010.85 1011.40 1011.33 1012.51 1013.77 1015.34 1016.12 1016.69 1017.09 1017.74 1018.09
1022.85 1022.77 1022.54 1021.31 1019.00 1019.33 1018.84 1017.69 1016.63 1014.62 1012.17 1011.27 1011.23 1011.45 1011.54 1011.94 1012.46 1012.53 1012.54 1012.27 1011.28 1011.93 1012.30 1013.13 1013.52 1014.34 1014.09 1013.46 1013.66 1013.04 1012.25 1011.63 1011.39 1011.14 1009.99 1011.83 1011.93 1012.91 1015.04 1016.16 1016.80 1017.19 1017.42 1018.04 1018.36
1022.84 1022.27 1021.25 1020.34 1019.35 1019.46 1018.74 1016.79 1015.48 1012.27 1010.90 1010.54 1010.55 1011.31 1011.05 1011.62 1012.12 1012.19 1012.01 1011.73 1012.14 1011.57 1011.59 1011.84 1013.67 1014.03 1014.45 1013.27 1012.24 1012.19 1011.75 1010.45 1010.15 1009.84 1010.30 1012.64 1012.19 1013.75 1015.71 1016.78 1017.30 1017.61 1017.91 1018.24 1018.55
1022.57 1020.90 1019.92 1019.19 1019.78 1019.47 1018.06 1015.94 1013.20 1010.82 1009.57 1010.19 1010.58 1010.60 1010.61 1011.46 1011.81 1012.31 1011.85 1011.44 1011.65 1012.02 1011.06 1011.11 1013.15 1014.77 1014.69 1014.53 1013.67 1012.99 1012.57 1012.20 1011.81 1011.85 1011.32 1011.53 1013.73 1015.25 1016.18 1016.99 1017.53 1017.81 1018.08 1018.49 1018.72
1021.98 1020.73 1018.95 1018.67 1019.42 1018.84 1017.19 1015.08 1012.39 1010.71 1009.56 1009.89 1009.27 1009.59 1009.67 1010.75 1011.40 1011.48 1011.61 1012.17 1012.86 1013.03 1012.87 1012.24 1013.59 1014.50 1015.23 1014.95 1014.57 1013.46 1012.79 1012.83 1012.37 1011.62 1011.08 1011.46 1012.20 1012.87 1015.67 1016.56 1017.25 1017.68 1018.16 1018.53 1018.87
1021.96 1020.03 1018.58 1018.85 1019.07 1017.81 1015.80 1014.17 1011.96 1010.89 1009.94 1009.36 1008.76 1009.05 1008.68 1009.73 1010.49 1010.94 1011.61 1012.95 1013.29 1013.74 1013.59 1013.08 1013.06 1015.16 1015.49 1014.50 1013.44 1014.06 1013.31 1013.14 1012.41 1012.60 1011.49 1011.33 1011.81 1013.22 1014.98 1016.42 1017.26 1017.78 1018.44 1018.72 1019.02
1021.48 1019.91 1018.87 1019.02 1018.08 1016.30 1015.32 1013.40 1011.82 1010.70 1010.02 1009.38 1009.56 1009.09 1008.62 1009.39 1010.17 1010.66 1011.44 1012.40 1013.77 1014.08 1013.85 1013.93 1013.32 1014.52 1014.46 1014.84 1014.66 1013.85 1013.08 1013.31 1012.68 1013.12 1012.88 1012.78 1013.38 1014.82 1015.92 1016.95 1017.94 1018.05 1018.53 1018.92 1019.24
1020.57 1019.46 1018.88 1018.94 1016.97 1016.04 1014.89 1013.36 1011.98 1010.63 1009.99 1009.85 1009.70 1009.65 1009.25 1009.73 1010.54 1011.29 1012.24 1013.83 1014.44 1014.45 1014.41 1014.72 1014.02 1014.42 1015.24 1015.75 1015.40 1014.65 1014.48 1014.29 1014.54 1014.26 1013.07 1013.13 1013.75 1015.54 1016.44 1017.22 1017.83 1018.30 1018.47 1018.73 1019.12
1020.04 1019.26 1018.40 1018.34 1016.10 1015.14 1014.31 1012.52 1011.38 1010.51 1009.91 1009.81 1009.48 1010.04 1010.12 1009.94 1010.81 1011.54 1013.35 1014.68 1015.13 1015.11 1015.78 1015.69 1014.07 1013.55 1013.38 1013.06 1013.58 1014.34 1014.42 1014.83 1014.74 1014.64 1013.88 1013.41 1014.24 1015.50 1016.23 1016.87 1017.39 1018.00 1018.42 1018.76 1019.15
1019.57 1017.55 1016.65 1016.26 1015.94 1014.63 1013.60 1011.80 1010.66 1009.99 1009.95 1009.91 1009.53 1009.59 1009.53 1009.98 1010.73 1011.54 1013.38 1014.79 1015.71 1016.32 1016.21 1015.55 1014.97 1014.78 1014.73 1014.79 1014.60 1014.51 1014.47 1014.66 1014.60 1014.70 1014.56 1014.08 1013.81 1014.48 1015.51 1016.59 1017.46 1018.02 1018.58 1018.95 1019.18
1018.63 1016.58 1016.26 1014.92 1014.35 1014.26 1012.84 1010.87 1009.55 1009.07 1009.29 1009.04 1008.93 1009.19 1009.13 1009.35 1009.52 1010.40 1012.34 1013.79 1014.31 1015.95 1015.77 1015.72 1015.31 1015.32 1015.60 1015.63 1015.56 1015.18 1014.80 1014.34 1014.42 1014.57 1014.57 1014.64 1014.62 1015.02 1015.80 1016.89 1017.66 1018.12 1018.59 1018.99 1019.31
1018.66 1015.89 1015.65 1014.47 1013.39 1012.48 1010.74 1010.03 1009.26 1008.60 1008.58 1008.44 1008.86 1008.75 1008.89 1009.36 1009.78 1010.26 1012.25 1013.01 1013.46 1014.52 1014.98 1015.32 1015.28 1015.57 1015.46 1016.00 1016.05 1015.57 1014.29 1013.80 1013.84 1014.09 1014.34 1014.14 1014.38 1014.90 1016.07 1016.77 1017.36 1017.90 1018.59 1019.10 1019.64
Wind_Speed
17 18 18 19 19 20 20 19 19 18 18 18 18 18 18 19 22 9 2 8 9 16 14 15 9 9 11 8 9 7 10 11 5 4 11 5 5 10 3 17 17 18 13 8 7
17 18 19 20 20 20 20 20 19 19 18 17 17 17 17 16 14 2 4 8 9 10 12 7 5 8 10 6 4 8 11 10 12 10 6 5 7 8 4 13 14 15 15 11 6
18 19 20 20 20 21 21 21 20 19 18 16 15 15 14 14 11 4 7 10 11 12 12 9 8 12 11 7 5 3 7 11 11 6 5 4 11 13 12 14 13 14 14 16 7
18 19 20 21 21 21 21 20 21 20 18 15 14 13 12 10 3 7 6 10 11 13 9 8 11 11 11 10 6 8 4 3 6 6 6 5 5 12 15 10 9 10 10 11 11
18 19 21 22 21 22 22 21 21 19 17 14 12 10 9 10 3 7 6 6 10 6 6 8 10 9 10 5 7 4 10 8 7 3 10 4 6 12 13 11 9 7 7 10 10
18 19 21 23 23 23 23 22 20 18 15 13 9 8 11 13 4 4 7 5 3 5 1 7 4 6 4 4 4 6 9 9 6 6 7 4 11 5 13 8 6 7 9 10 10
19 20 21 23 24 24 24 23 21 17 12 10 8 8 14 3 3 6 1 3 2 5 3 1 1 7 10 7 8 10 14 8 10 5 4 1 12 12 10 11 10 10 13 13 18
20 20 20 23 24 24 24 23 21 15 11 10 8 9 1 2 3 4 4 4 2 2 5 2 3 5 4 10 9 11 11 12 9 3 3 8 15 13 12 11 14 15 14 16 20
20 21 20 21 23 24 25 23 20 12 11 11 8 10 4 6 2 3 3 2 4 4 4 3 7 5 8 13 10 11 10 9 9 6 4 6 13 11 13 14 16 16 17 18 18
19 21 21 21 23 24 27 22 8 11 9 8 6 7 4 4 2 3 3 4 2 6 7 8 9 10 11 12 13 12 10 6 9 5 16 19 17 14 14 15 16 16 17 18 20
18 21 22 21 22 24 19 6 7 7 11 7 3 3 7 6 7 3 2 7 5 7 7 10 10 8 6 3 5 11 15 13 12 7 15 17 17 15 14 15 16 16 16 17 19
18 20 22 23 23 24 11 7 6 8 4 4 4 3 1 2 5 3 9 9 9 7 8 8 9 6 5 6 9 12 17 14 10 12 13 16 16 14 14 13 15 15 15 16 16
18 19 21 23 25 13 5 5 6 7 7 6 3 8 6 6 1 4 4 6 7 11 14 4 11 7 9 10 11 8 9 12 16 11 14 17 14 12 13 12 11 13 13 14 15
16 18 19 23 12 5 2 5 5 5 6 13 11 6 8 5 4 2 4 3 5 9 14 8 7 8 10 9 4 10 6 8 13 17 9 12 8 6 9 10 11 11 12 12 14
14 17 18 15 13 4 7 6 6 5 4 18 13 6 6 7 10 6 0 6 7 9 7 7 9 9 9 5 7 11 7 7 10 11 10 9 9 12 3 7 8 9 12 12 13
9 16 18 5 7 5 6 5 5 3 8 10 9 12 14 9 4 6 4 1 5 8 6 10 6 3 7 6 3 11 10 8 5 6 8 3 10 9 7 4 5 7 10 12 13
7 13 14 10 4 6 6 5 5 5 8 11 11 17 16 10 9 10 13 12 8 13 12 13 7 7 5 10 8 10 14 7 9 7 2 5 7 12 9 4 5 6 9 10 12
11 12 12 9 5 6 7 8 7 11 14 6 12 16 16 14 9 12 15 12 8 6 15 10 9 10 4 5 4 10 11 6 8 6 10 6 7 9 8 6 4 5 7 8 10
14 9 9 7 9 6 9 7 10 10 12 13 17 18 14 16 7 12 15 14 8 12 7 8 7 5 2 3 7 8 7 7 1 6 3 10 10 7 9 9 5 3 4 6 8
9 9 13 10 8 8 10 9 12 7 8 19 16 19 19 19 13 14 14 6 9 6 4 5 7 6 6 5 4 8 7 5 3 6 7 8 12 7 15 11 7 5 1 4 6
8 6 7 8 8 10 10 10 14 7 11 20 14 15 16 20 16 17 15 8 8 9 7 8 3 9 6 9 10 6 7 5 3 4 4 5 6 12 13 7 4 2 0 3 6
5 6 6 8 10 9 11 14 11 11 14 11 9 10 14 18 15 14 13 4 10 11 9 3 3 8 10 4 9 7 4 8 6 9 2 6 7 8 10 7 2 2 2 4 5
4 9 5 10 9 8 11 20 13 15 17 14 11 8 12 14 10 10 11 8 10 9 11 10 7 8 7 5 8 9 8 6 0 4 9 5 7 10 8 6 4 5 5 5 3
4 4 7 9 9 17 17 18 22 16 16 13 10 9 13 16 5 15 12 11 11 7 6 2 8 5 4 7 11 11 15 11 8 4 4 10 13 11 9 10 2 3 2 4 6
6 8 9 7 11 17 19 13 21 15 17 16 13 16 16 12 12 15 16 16 10 9 9 6 7 6 5 6 3 8 13 14 15 10 7 2 8 1 3 2 3 2 3 4 6
5 7 9 14 17 24 22 25 24 24 19 24 17 22 22 14 10 22 18 16 12 14 11 7 5 7 3 4 4 7 10 13 16 15 15 13 12 7 6 4 6 4 4 6 6
5 12 5 9 21 18 24 25 26 23 19 18 25 19 20 8 6 16 18 12 10 15 13 10 8 8 5 5 2 8 20 20 17 17 15 16 11 8 6 7 6 4 4 6 6
Wind_Direction
349 342 341 333 330 326 324 323 322 323 324 325 327 328 326 323 308 235 253 343 303 312 302 272 247 240 234 233 252 255 255 244 145 325 101 69 353 33 267 82 35 42 30 56 83
345 345 340 332 328 324 322 321 320 319 318 320 319 318 319 320 293 200 39 312 313 305 300 305 232 194 220 221 229 243 246 36 49 43 56 59 31 0 6 37 31 27 22 44 102
345 347 338 331 327 324 321 318 317 314 312 310 308 308 308 309 265 104 10 333 310 290 273 276 264 253 223 205 180 183 321 114 72 37 335 2 65 33 0 49 21 16 16 17 55
344 343 334 331 328 324 319 316 314 310 306 300 296 298 306 263 256 55 3 297 282 277 263 243 238 217 220 200 177 138 47 14 69 51 16 36 65 67 44 25 356 13 8 22 25
345 337 335 332 328 325 319 314 313 309 302 291 287 296 276 219 252 17 284 235 265 283 266 231 233 230 211 162 184 162 119 104 82 115 22 310 62 94 33 2 350 5 22 22 11
340 337 335 332 328 325 319 314 312 308 300 284 278 293 236 243 42 341 330 297 307 251 228 229 250 245 122 170 241 123 136 99 52 102 48 356 82 3 17 2 17 26 33 35 21
337 337 336 332 328 323 318 315 311 305 298 282 276 260 242 65 352 340 55 6 324 307 132 299 275 224 147 138 139 148 141 111 40 85 87 266 95 39 15 18 33 31 37 41 33
335 335 336 331 326 320 315 313 306 295 292 278 275 258 12 148 348 13 288 104 160 148 100 345 167 86 242 110 162 182 189 187 62 120 191 244 76 41 36 39 51 49 49 48 43
332 332 334 330 324 320 314 309 294 275 270 269 251 242 149 152 192 26 345 97 136 133 114 184 219 158 172 184 170 197 193 176 103 36 164 177 100 55 52 56 55 57 55 52 44
331 330 330 329 324 321 314 296 287 287 228 230 257 241 178 152 48 285 105 200 165 149 159 202 198 190 198 206 199 177 131 149 111 93 100 99 97 74 64 69 64 62 63 58 53
332 330 327 327 323 320 317 210 200 191 214 319 110 20 117 121 211 74 206 178 195 227 204 212 196 175 88 15 39 143 140 116 121 94 109 103 98 87 70 68 71 66 61 58 57
332 330 327 325 322 313 290 289 24 352 199 211 217 109 60 354 156 93 186 222 219 169 181 182 110 106 129 140 142 146 133 120 117 174 135 118 102 92 85 76 63 63 61 50 48
332 332 329 323 316 290 335 3 325 332 246 181 190 171 160 228 16 73 251 188 188 176 190 152 132 158 158 149 141 124 144 172 135 153 133 132 107 113 100 87 81 74 59 55 44
331 332 332 326 291 346 220 328 348 325 242 162 197 165 183 176 140 342 333 317 197 146 109 96 134 162 162 134 130 127 97 127 155 166 180 228 122 110 103 93 75 64 57 50 43
329 329 329 323 308 256 18 321 309 250 273 141 155 91 148 215 121 120 169 220 172 147 255 116 151 169 160 96 291 119 167 170 174 216 167 179 245 117 171 96 63 44 47 40 43
328 327 330 279 261 334 323 292 262 248 244 167 157 184 178 186 184 114 164 223 162 178 164 121 74 15 108 141 36 136 157 161 207 159 231 153 271 143 142 85 56 42 52 42 41
313 317 305 299 326 330 281 215 206 200 145 173 185 175 188 175 168 187 169 177 150 148 156 156 138 125 201 147 168 206 178 155 190 198 105 132 231 76 118 96 69 51 54 55 50
303 301 282 262 261 289 243 197 212 225 204 139 170 185 193 170 174 186 188 178 249 248 153 165 167 180 162 304 150 190 211 300 222 196 136 156 187 147 121 118 110 84 70 57 51
290 286 257 222 223 235 230 204 204 227 188 174 168 179 185 184 194 186 198 202 173 235 204 187 110 118 167 191 276 149 216 40 124 38 262 147 90 133 161 159 153 87 65 50 35
298 298 263 150 197 222 225 234 228 239 172 186 184 193 188 188 196 198 185 191 182 249 331 111 129 180 139 214 208 292 110 176 219 191 214 180 167 133 177 171 162 164 43 34 21
274 260 101 160 193 216 214 229 237 224 214 194 214 196 202 181 201 199 187 150 174 171 225 167 185 157 168 218 166 171 188 243 324 312 267 191 132 104 150 157 178 174 13 359 351
273 243 140 188 202 217 222 218 247 216 208 198 279 203 213 175 195 189 179 197 174 163 176 122 105 164 184 70 334 317 226 204 254 170 224 328 89 115 132 148 176 292 229 323 343
236 250 169 224 219 214 232 229 244 221 196 194 212 202 205 175 182 173 154 115 161 180 159 182 163 137 159 178 212 221 202 215 304 312 201 212 117 149 142 163 194 247 281 287 351
226 219 212 213 239 215 217 225 216 237 211 201 197 181 184 187 188 167 149 168 167 163 21 212 194 270 196 77 141 189 187 198 199 203 229 224 126 171 190 229 298 271 252 296 338
226 207 218 203 224 230 223 216 217 206 221 196 194 197 181 174 173 167 159 148 180 138 192 234 184 187 101 100 118 179 193 197 213 212 215 253 243 162 148 257 281 291 268 286 307
224 193 238 246 203 215 221 223 219 200 195 199 213 199 195 186 185 172 160 173 171 177 183 199 144 161 190 175 215 232 234 223 222 225 235 244 250 257 244 174 209 221 262 296 315
259 242 185 251 245 203 219 219 224 216 202 216 211 186 194 201 197 158 164 164 157 169 178 174 150 171 145 160 175 268 234 226 227 221 234 237 244 172 186 202 225 242 277 305 328